GW1452 Weather Reports


Display with metric or nautical units.
time (UTC)temp
F
wind
direction
speed
MPH
gust
MPH
rain 1hr
in
rain 24hr
in
rain mn
in
humidity
%
barometer
mb
20260506044553 73 0 0.0 2.0 0.00 0.00 0.00 42 1009.2
20260506043049 74 55 1.0 5.0 0.00 0.00 0.00 43 1009.2
20260506041551 75 0 0.0 0.0 0.00 0.00 0.00 39 1008.9
20260506040059 76 0 0.0 0.0 0.00 0.00 0.00 37 1008.9
20260506034606 77 0 0.0 0.0 0.00 0.00 0.00 35 1008.6
20260506033049 78 0 0.0 1.0 0.00 0.00 0.00 32 1008.8
20260506031601 79 0 0.0 2.0 0.00 0.00 0.00 30 1008.7
20260506030054 80 271 0.0 2.0 0.00 0.00 0.00 28 1008.4
20260506024554 81 0 0.0 4.0 0.00 0.00 0.00 27 1008.3
20260506023054 81 278 0.0 2.0 0.00 0.00 0.00 27 1008.1
20260506021556 82 0 0.0 3.0 0.00 0.00 0.00 25 1008.0
20260506020055 83 285 0.0 4.0 0.00 0.00 0.00 24 1007.7
20260506014553 83 0 0.0 4.0 0.00 0.00 0.00 24 1007.7
20260506013055 85 288 0.0 4.0 0.00 0.00 0.00 24 1007.5
20260506011558 86 297 1.0 8.0 0.00 0.00 0.00 24 1007.2
20260506010057 87 286 2.0 8.0 0.00 0.00 0.00 24 1007.1
20260506004558 87 291 1.0 3.0 0.00 0.00 0.00 27 1006.9
20260506003049 88 267 0.0 4.0 0.00 0.00 0.00 26 1006.5
20260506001555 88 0 0.0 3.0 0.00 0.00 0.00 25 1006.4
20260506000103 88 242 1.0 4.0 0.00 0.00 0.00 26 1006.4
20260505234604 89 239 1.0 3.0 0.00 0.00 0.00 25 1006.3
20260505233108 89 263 2.0 5.0 0.00 0.00 0.00 24 1006.4
20260505231605 90 264 3.0 10.0 0.00 0.00 0.00 21 1006.4
20260505230055 91 234 2.0 8.0 0.00 0.00 0.00 23 1006.3
20260505224603 91 262 4.0 12.0 0.00 0.00 0.00 21 1006.4
20260505223057 91 172 4.0 8.0 0.00 0.00 0.00 23 1006.4
20260505221553 91 257 2.0 7.0 0.00 0.00 0.00 22 1006.5
20260505220051 91 271 3.0 10.0 0.00 0.00 0.00 22 1006.5
20260505214554 91 297 3.0 10.0 0.00 0.00 0.00 22 1006.4
20260505213053 92 269 4.0 11.0 0.00 0.00 0.00 22 1006.5
20260505211606 92 350 3.0 9.0 0.00 0.00 0.00 21 1006.7
20260505210054 92 287 2.0 12.0 0.00 0.00 0.00 23 1006.9
20260505204553 92 271 2.0 11.0 0.00 0.00 0.00 24 1007.0
20260505203058 91 273 4.0 9.0 0.00 0.00 0.00 25 1007.1
20260505201559 91 286 4.0 11.0 0.00 0.00 0.00 26 1007.1
20260505200054 90 272 3.0 9.0 0.00 0.00 0.00 28 1007.4
20260505194607 90 288 2.0 9.0 0.00 0.00 0.00 29 1007.5
20260505193052 90 5 3.0 9.0 0.00 0.00 0.00 28 1007.5
20260505191553 89 360 2.0 8.0 0.00 0.00 0.00 31 1007.6
20260505190055 88 284 4.0 13.0 0.00 0.00 0.00 31 1007.9
20260505184554 89 281 3.0 11.0 0.00 0.00 0.00 33 1008.1
20260505183055 88 0 3.0 9.0 0.00 0.00 0.00 35 1008.1
20260505181559 87 239 2.0 10.0 0.00 0.00 0.00 41 1008.3
20260505180054 86 0 0.0 5.0 0.00 0.00 0.00 47 1008.5
20260505174557 85 250 2.0 7.0 0.00 0.00 0.00 49 1008.6
20260505173058 83 268 2.0 7.0 0.00 0.00 0.00 55 1008.7
20260505171555 82 209 2.0 9.0 0.00 0.00 0.00 56 1008.8
20260505170055 81 157 1.0 9.0 0.00 0.00 0.00 64 1008.8
20260505164615 79 321 3.0 9.0 0.00 0.00 0.00 65 1008.8
20260505163102 78 0 0.0 0.0 0.00 0.00 0.00 67 1008.8
20260505161613 77 0 0.0 9.0 0.00 0.00 0.00 68 1008.8
20260505160104 76 253 1.0 10.0 0.00 0.00 0.00 73 1008.9
20260505153054 75 284 4.0 10.0 0.00 0.00 0.00 73 1008.7
20260505151558 75 239 4.0 12.0 0.00 0.00 0.00 74 1008.5
20260505130110 68 242 3.0 9.0 0.00 0.00 0.00 84 1008.0
20260505124600 68 229 1.0 6.0 0.00 0.00 0.00 85 1007.9
20260505123054 68 276 2.0 8.0 0.00 0.00 0.00 84 1007.8
20260505121552 68 227 1.0 7.0 0.00 0.00 0.00 84 1007.5
20260505120107 68 201 2.0 6.0 0.00 0.00 0.00 84 1007.3
20260505114552 68 245 2.0 7.0 0.00 0.00 0.00 83 1007.2
20260505113052 68 223 2.0 10.0 0.00 0.00 0.00 82 1007.0
20260505111550 68 198 3.0 14.0 0.00 0.00 0.00 81 1007.0
20260505101552 69 179 4.0 10.0 0.00 0.00 0.00 79 1006.7
20260505100048 69 163 3.0 13.0 0.00 0.00 0.00 78 1006.7
20260505094550 69 219 3.0 12.0 0.00 0.00 0.00 78 1006.7
20260505093053 69 209 3.0 11.0 0.00 0.00 0.00 77 1006.7
20260505091554 70 172 3.0 11.0 0.00 0.00 0.00 77 1006.4
20260505090049 70 245 5.0 12.0 0.00 0.00 0.00 77 1006.6
20260505084551 70 242 4.0 11.0 0.00 0.00 0.00 76 1007.0
20260505083054 70 231 3.0 13.0 0.00 0.00 0.00 76 1007.0
20260505081554 70 242 3.0 12.0 0.00 0.00 0.00 75 1007.2
20260505080050 70 171 4.0 10.0 0.00 0.00 0.00 75 1007.2
20260505074552 71 175 4.0 14.0 0.00 0.00 0.00 74 1007.5
20260505073052 71 285 3.0 12.0 0.00 0.00 0.00 74 1007.5
20260505071556 71 253 5.0 12.0 0.00 0.00 0.00 73 1007.8
20260505070056 71 165 4.0 12.0 0.00 0.00 0.00 73 1007.7
20260505064556 71 252 5.0 14.0 0.00 0.00 0.00 72 1008.0
20260505063052 72 178 5.0 16.0 0.00 0.00 0.00 72 1008.3
20260505061554 72 195 5.0 16.0 0.00 0.00 0.00 71 1008.0
20260505060053 72 157 6.0 17.0 0.00 0.00 0.00 70 1008.1